Weather History for KHEI - July, 2012

Change the Weather History Date:

Tuesday, July 24, 2012

  Actual Average Record
Temperature  
Mean Temperature 73 °F -  
Max Temperature 86 °F 85 °F 106 °F (2003)
Min Temperature 63 °F 55 °F 39 °F (2004)
Cooling Degree Days 10 6  
Month to date cooling degree days 109  
Year to date cooling degree days 159  
Since 1 June cooling degree days 154  
Growing Degree Days 23 (Base 50)    
Moisture  
Dew Point 62 °F    
Average Humidity 76    
Maximum Humidity 94    
Minimum Humidity 53    
Precipitation  
Precipitation 0.00 in 0.07 in 0.41 in (2005)
Month to date precipitation 3.65 1.88  
Year to date precipitation 11.81 10.06  
Sea Level Pressure  
Sea Level Pressure 29.84 in    
Wind  
Wind Speed 11 mph (ENE)    
Max Wind Speed 18 mph    
Max Gust Speed 28 mph    
Visibility 10 miles    
Events Rain    
T = Trace of Precipitation, MM = Missing Value Source: NWS Daily Summary

Daily Weather History Graph

Daily Weather History Graph

Search for Another Location

Airport or City:

Trip Planner

Search our weather history database for the weather conditions in past years. The results will help you decide how hot, cold, wet, or windy it might be!

Date:

Astronomy

Jul. 24, 2012 Rise Set
Actual Time 5:24 AM MDT 8:29 PM MDT
Civil Twilight 4:48 AM MDT 9:04 PM MDT
Nautical Twilight 4:02 AM MDT 9:50 PM MDT
Astronomical Twilight 3:06 AM MDT 10:45 PM MDT
Moon 11:48 AM MDT (7/24) 10:52 PM MDT (7/24)
Length of Visible Light 16h 15m
Length of Day
15h 04m
Waxing Crescent, 32% of the Moon is Illuminated
Jul 24
Waxing Crescent
Jul 26
First Quarter
Aug 1
Full
Aug 9
Last Quarter
Aug 17
New

Hourly Weather History & Observations

Time (MDT) Temp. Heat Index Dew Point Humidity Pressure Visibility Wind Dir Wind Speed Gust Speed Precip Events Conditions
12:53 AM 66.9 °F - 57.9 °F 73% 29.91 in 10.0 mi ESE 8.1 mph - N/A   Mostly Cloudy
1:53 AM 66.0 °F - 57.0 °F 73% 29.88 in 10.0 mi East 13.8 mph - N/A   Clear
2:53 AM 64.0 °F - 59.0 °F 84% 29.87 in 10.0 mi East 12.7 mph - N/A   Clear
3:47 AM 62.6 °F - 60.8 °F 94% 29.95 in 10.0 mi North 16.1 mph 21.9 mph N/A   Partly Cloudy
3:53 AM 64.0 °F - 60.1 °F 87% 29.86 in 10.0 mi NE 15.0 mph 27.6 mph N/A   Scattered Clouds
4:00 AM 62.6 °F - 60.8 °F 94% 29.95 in 10.0 mi North 15.0 mph 27.6 mph N/A   Scattered Clouds
4:06 AM 64.4 °F - 60.8 °F 88% 29.95 in 10.0 mi North 15.0 mph - N/A   Mostly Cloudy
4:53 AM 64.0 °F - 60.1 °F 87% 29.88 in 10.0 mi NE 18.4 mph 26.5 mph N/A   Overcast
5:06 AM 64.4 °F - 60.8 °F 88% 29.94 in 10.0 mi NE 16.1 mph 24.2 mph N/A   Overcast
5:53 AM 64.0 °F - 60.1 °F 87% 29.89 in 10.0 mi ENE 10.4 mph - N/A   Overcast
6:03 AM 64.4 °F - 60.8 °F 88% 29.94 in 10.0 mi ENE 10.4 mph - N/A   Overcast
6:36 AM 64.4 °F - 59.0 °F 83% 29.93 in 10.0 mi East 11.5 mph - N/A   Overcast
6:53 AM 64.9 °F - 59.0 °F 81% 29.87 in 10.0 mi East 11.5 mph - N/A   Scattered Clouds
7:11 AM 64.4 °F - 59.0 °F 83% 29.92 in 10.0 mi East 11.5 mph - N/A   Mostly Cloudy
7:46 AM 66.2 °F - 60.8 °F 83% 29.91 in 10.0 mi ESE 16.1 mph 20.7 mph N/A   Scattered Clouds
7:53 AM 66.0 °F - 60.1 °F 81% 29.85 in 10.0 mi ESE 10.4 mph - N/A   Partly Cloudy
8:53 AM 69.1 °F - 62.1 °F 78% 29.83 in 10.0 mi ESE 10.4 mph - N/A   Clear
9:53 AM 73.9 °F - 63.0 °F 68% 29.83 in 10.0 mi SE 6.9 mph - N/A   Clear
10:53 AM 77.0 °F - 64.0 °F 64% 29.81 in 10.0 mi Variable 4.6 mph - N/A   Clear
11:53 AM 78.1 °F - 64.9 °F 64% 29.79 in 10.0 mi SE 4.6 mph - N/A   Clear
12:53 PM 81.0 °F 83.0 °F 66.0 °F 60% 29.79 in 10.0 mi Variable 3.5 mph - N/A   Clear
1:53 PM 81.0 °F 82.7 °F 64.9 °F 58% 29.78 in 10.0 mi Calm Calm - N/A   Clear
2:53 PM 84.9 °F 87.1 °F 66.0 °F 53% 29.76 in 10.0 mi ENE 6.9 mph - N/A   Clear
3:53 PM 84.9 °F 87.1 °F 66.0 °F 53% 29.75 in 10.0 mi ENE 8.1 mph - N/A   Clear
4:53 PM 82.9 °F 84.6 °F 64.9 °F 54% 29.73 in 10.0 mi NE 9.2 mph - N/A   Clear
5:53 PM 84.0 °F 86.5 °F 66.9 °F 56% 29.74 in 10.0 mi NNE 8.1 mph - N/A   Clear
6:53 PM 81.0 °F 83.0 °F 66.0 °F 60% 29.74 in 10.0 mi NE 9.2 mph - N/A   Clear
7:53 PM 77.0 °F - 66.9 °F 71% 29.75 in 10.0 mi NE 9.2 mph - N/A   Clear
8:53 PM 73.0 °F - 63.0 °F 71% 29.75 in 10.0 mi NNE 12.7 mph - N/A   Clear
9:53 PM 70.0 °F - 63.0 °F 78% 29.74 in 10.0 mi North 3.5 mph - N/A   Clear
10:53 PM 68.0 °F - 64.0 °F 87% 29.73 in 10.0 mi Calm Calm - 0.00 in Rain Light Rain
11:53 PM 64.9 °F - 62.1 °F 90% 29.73 in 10.0 mi NNW 3.5 mph - 0.00 in   Clear